Wetterdaten: aktuell Dienstag, 25.02.2020 23:05
Datum Zeit Temp. A. Temp. A. min Feuchte A. Luftdruck Regen Wind Richtung Richtung Sonnenschein Solar Taupunkt Windchill Windben
25.02.2020 23:05 4,8 C 4,8 C 91 % 1007,0 hPa 0,0 l/m 1,3 km/h (1 Bft) S 190 0 min 0 W/m 3,5 C 4,8 C 6,4 km/h (2 Bft)
25.02.2020 23:00 4,8 C 4,8 C 91 % 1007,1 hPa 0,0 l/m 0,1 km/h (0 Bft) S-SO 159 0 min 0 W/m 3,5 C 4,8 C 1,6 km/h (1 Bft)
25.02.2020 22:55 4,8 C 4,7 C 91 % 1007,3 hPa 0,0 l/m 2,0 km/h (1 Bft) S-SO 159 0 min 0 W/m 3,5 C 4,8 C 8,0 km/h (2 Bft)
25.02.2020 22:50 4,7 C 4,7 C 91 % 1007,4 hPa 0,0 l/m 1,2 km/h (1 Bft) S 172 0 min 0 W/m 3,4 C 4,7 C 6,4 km/h (2 Bft)
25.02.2020 22:45 4,7 C 4,7 C 91 % 1007,4 hPa 0,0 l/m 1,0 km/h (0 Bft) S-SW 196 0 min 0 W/m 3,4 C 4,7 C 4,8 km/h (1 Bft)
25.02.2020 22:40 4,7 C 4,7 C 91 % 1007,3 hPa 0,0 l/m 1,7 km/h (1 Bft) S 185 0 min 0 W/m 3,4 C 4,7 C 4,8 km/h (1 Bft)
25.02.2020 22:35 4,7 C 4,7 C 92 % 1007,4 hPa 0,0 l/m 2,2 km/h (1 Bft) S-SW 202 0 min 0 W/m 3,5 C 4,7 C 8,0 km/h (2 Bft)
25.02.2020 22:30 4,7 C 4,6 C 92 % 1007,3 hPa 0,0 l/m 0,4 km/h (0 Bft) S-SW 207 0 min 0 W/m 3,5 C 4,7 C 4,8 km/h (1 Bft)
25.02.2020 22:25 4,6 C 4,6 C 92 % 1007,2 hPa 0,0 l/m 1,0 km/h (0 Bft) S-SW 205 0 min 0 W/m 3,4 C 4,6 C 4,8 km/h (1 Bft)
25.02.2020 22:20 4,6 C 4,6 C 92 % 1007,3 hPa 0,0 l/m 2,9 km/h (1 Bft) S-SW 192 0 min 0 W/m 3,4 C 4,6 C 14,5 km/h (3 Bft)
25.02.2020 22:15 4,6 C 4,6 C 92 % 1007,4 hPa 0,0 l/m 0,0 km/h (0 Bft) S-SW 197 0 min 0 W/m 3,4 C 4,6 C 0,0 km/h (0 Bft)
25.02.2020 22:10 4,6 C 4,5 C 92 % 1007,5 hPa 0,0 l/m 1,4 km/h (1 Bft) S-SW 198 0 min 0 W/m 3,4 C 4,6 C 6,4 km/h (2 Bft)
25.02.2020 22:05 4,5 C 4,5 C 92 % 1007,6 hPa 0,0 l/m 2,1 km/h (1 Bft) SW 234 0 min 0 W/m 3,3 C 4,5 C 6,4 km/h (2 Bft)
25.02.2020 22:00 4,5 C 4,4 C 92 % 1007,6 hPa 0,0 l/m 1,7 km/h (1 Bft) SW 217 0 min 0 W/m 3,3 C 4,5 C 6,4 km/h (2 Bft)
25.02.2020 21:55 4,4 C 4,4 C 92 % 1007,5 hPa 0,0 l/m 0,7 km/h (0 Bft) S 188 0 min 0 W/m 3,2 C 4,4 C 8,0 km/h (2 Bft)
25.02.2020 21:50 4,5 C 4,4 C 92 % 1007,6 hPa 0,0 l/m 1,1 km/h (1 Bft) S-SW 194 0 min 0 W/m 3,3 C 4,5 C 9,7 km/h (2 Bft)
25.02.2020 21:45 4,6 C 4,6 C 92 % 1007,6 hPa 0,0 l/m 0,0 km/h (0 Bft) S 190 0 min 0 W/m 3,4 C 4,6 C 1,6 km/h (1 Bft)
25.02.2020 21:40 4,6 C 4,6 C 91 % 1007,8 hPa 0,0 l/m 0,0 km/h (0 Bft) S 190 0 min 0 W/m 3,3 C 4,6 C 0,0 km/h (0 Bft)
25.02.2020 21:35 4,7 C 4,7 C 92 % 1008,0 hPa 0,0 l/m 0,6 km/h (0 Bft) S 190 0 min 0 W/m 3,5 C 4,7 C 4,8 km/h (1 Bft)
25.02.2020 21:30 4,7 C 4,7 C 92 % 1008,1 hPa 0,0 l/m 0,6 km/h (0 Bft) S 178 0 min 0 W/m 3,5 C 4,7 C 4,8 km/h (1 Bft)
25.02.2020 21:25 4,7 C 4,7 C 91 % 1008,2 hPa 0,0 l/m 1,1 km/h (1 Bft) S-SW 195 0 min 0 W/m 3,4 C 4,7 C 6,4 km/h (2 Bft)
25.02.2020 21:20 4,8 C 4,8 C 91 % 1008,3 hPa 0,0 l/m 0,1 km/h (0 Bft) S-SW 193 0 min 0 W/m 3,5 C 4,8 C 1,6 km/h (1 Bft)
25.02.2020 21:15 4,8 C 4,8 C 91 % 1008,4 hPa 0,0 l/m 1,7 km/h (1 Bft) S-SO 149 0 min 0 W/m 3,5 C 4,8 C 8,0 km/h (2 Bft)
25.02.2020 21:10 4,9 C 4,9 C 91 % 1008,4 hPa 0,0 l/m 0,1 km/h (0 Bft) S 183 0 min 0 W/m 3,6 C 4,9 C 1,6 km/h (1 Bft)
25.02.2020 21:05 4,9 C 4,9 C 91 % 1008,4 hPa 0,0 l/m 0,1 km/h (0 Bft) S 183 0 min 0 W/m 3,6 C 4,9 C 1,6 km/h (1 Bft)
25.02.2020 21:00 5,1 C 5,0 C 91 % 1008,4 hPa 0,0 l/m 0,5 km/h (0 Bft) S 183 0 min 0 W/m 3,8 C 5,1 C 3,2 km/h (1 Bft)
25.02.2020 20:55 5,1 C 5,1 C 91 % 1008,6 hPa 0,0 l/m 0,3 km/h (0 Bft) S 174 0 min 0 W/m 3,8 C 5,1 C 4,8 km/h (1 Bft)
25.02.2020 20:50 5,1 C 5,1 C 91 % 1008,6 hPa 0,0 l/m 0,0 km/h (0 Bft) S-SW 210 0 min 0 W/m 3,8 C 5,1 C 0,0 km/h (0 Bft)
25.02.2020 20:45 5,2 C 5,2 C 91 % 1008,8 hPa 0,0 l/m 0,1 km/h (0 Bft) S 170 0 min 0 W/m 3,9 C 5,2 C 1,6 km/h (1 Bft)
25.02.2020 20:40 5,2 C 5,2 C 90 % 1008,8 hPa 0,0 l/m 0,0 km/h (0 Bft) S 170 0 min 0 W/m 3,7 C 5,2 C 0,0 km/h (0 Bft)
25.02.2020 20:35 5,3 C 5,3 C 90 % 1008,7 hPa 0,0 l/m 0,0 km/h (0 Bft) S-SO 167 0 min 0 W/m 3,8 C 5,3 C 0,0 km/h (0 Bft)
25.02.2020 20:30 5,4 C 5,4 C 90 % 1008,7 hPa 0,0 l/m 0,0 km/h (0 Bft) S-SO 167 0 min 0 W/m 3,9 C 5,4 C 0,0 km/h (0 Bft)
25.02.2020 20:25 5,5 C 5,5 C 90 % 1008,6 hPa 0,0 l/m 0,3 km/h (0 Bft) S-SO 167 0 min 0 W/m 4,0 C 5,5 C 6,4 km/h (2 Bft)
25.02.2020 20:20 5,7 C 5,6 C 90 % 1008,7 hPa 0,0 l/m 0,2 km/h (0 Bft) S 185 0 min 0 W/m 4,2 C 5,7 C 3,2 km/h (1 Bft)
25.02.2020 20:15 5,7 C 5,7 C 90 % 1008,8 hPa 0,0 l/m 1,1 km/h (1 Bft) S 185 0 min 0 W/m 4,2 C 5,7 C 4,8 km/h (1 Bft)
25.02.2020 20:10 5,8 C 5,8 C 90 % 1008,9 hPa 0,0 l/m 2,7 km/h (1 Bft) S-SW 200 0 min 0 W/m 4,3 C 5,8 C 8,0 km/h (2 Bft)
25.02.2020 20:05 5,9 C 5,9 C 90 % 1008,9 hPa 0,0 l/m 2,8 km/h (1 Bft) S-SW 200 0 min 0 W/m 4,4 C 5,9 C 6,4 km/h (2 Bft)
25.02.2020 20:00 6,0 C 6,0 C 90 % 1008,9 hPa 0,0 l/m 3,2 km/h (1 Bft) S-SW 202 0 min 0 W/m 4,5 C 6,0 C 11,3 km/h (2 Bft)
25.02.2020 19:55 6,1 C 6,1 C 90 % 1009,0 hPa 0,0 l/m 2,8 km/h (1 Bft) SW 214 0 min 0 W/m 4,6 C 6,1 C 9,7 km/h (2 Bft)
25.02.2020 19:50 6,1 C 6,1 C 90 % 1008,9 hPa 0,0 l/m 4,3 km/h (1 Bft) S-SW 213 0 min 0 W/m 4,6 C 6,1 C 14,5 km/h (3 Bft)
25.02.2020 19:45 6,2 C 6,1 C 90 % 1009,0 hPa 0,0 l/m 6,4 km/h (2 Bft) S-SW 192 0 min 0 W/m 4,7 C 5,0 C 14,5 km/h (3 Bft)
25.02.2020 19:40 6,2 C 6,2 C 90 % 1009,1 hPa 0,0 l/m 4,9 km/h (1 Bft) S-SW 195 0 min 0 W/m 4,7 C 5,5 C 12,9 km/h (3 Bft)
25.02.2020 19:35 6,3 C 6,3 C 90 % 1009,1 hPa 0,0 l/m 3,9 km/h (1 Bft) S-SW 192 0 min 0 W/m 4,8 C 6,3 C 9,7 km/h (2 Bft)
25.02.2020 19:30 6,3 C 6,3 C 90 % 1009,2 hPa 0,0 l/m 5,6 km/h (1 Bft) S-SW 196 0 min 0 W/m 4,8 C 5,3 C 12,9 km/h (3 Bft)
25.02.2020 19:25 6,4 C 6,4 C 90 % 1009,1 hPa 0,0 l/m 6,3 km/h (2 Bft) S-SW 211 0 min 0 W/m 4,9 C 5,2 C 20,9 km/h (4 Bft)
25.02.2020 19:20 6,4 C 6,4 C 91 % 1009,2 hPa 0,0 l/m 9,1 km/h (2 Bft) S-SW 213 0 min 0 W/m 5,0 C 4,5 C 16,1 km/h (3 Bft)
25.02.2020 19:15 6,6 C 6,5 C 91 % 1009,4 hPa 0,0 l/m 9,4 km/h (2 Bft) SW 217 0 min 0 W/m 5,2 C 4,7 C 19,3 km/h (3 Bft)
25.02.2020 19:10 6,7 C 6,7 C 92 % 1009,4 hPa 0,0 l/m 11,7 km/h (2 Bft) SW 216 0 min 0 W/m 5,5 C 4,4 C 33,8 km/h (5 Bft)
25.02.2020 19:05 6,7 C 6,7 C 92 % 1009,5 hPa 0,0 l/m 7,3 km/h (2 Bft) SW 222 0 min 0 W/m 5,5 C 5,3 C 20,9 km/h (4 Bft)
25.02.2020 19:00 6,8 C 6,8 C 93 % 1009,4 hPa 0,0 l/m 9,1 km/h (2 Bft) S-SW 198 0 min 0 W/m 5,7 C 5,0 C 19,3 km/h (3 Bft)
25.02.2020 18:55 6,8 C 6,8 C 93 % 1009,4 hPa 0,0 l/m 5,4 km/h (1 Bft) SW 231 0 min 0 W/m 5,7 C 6,0 C 17,7 km/h (3 Bft)
25.02.2020 18:50 6,9 C 6,9 C 93 % 1009,3 hPa 0,0 l/m 7,2 km/h (2 Bft) SW 221 0 min 0 W/m 5,8 C 5,6 C 16,1 km/h (3 Bft)
25.02.2020 18:45 7,0 C 6,9 C 93 % 1009,2 hPa 0,0 l/m 7,4 km/h (2 Bft) S 175 0 min 0 W/m 5,9 C 5,6 C 17,7 km/h (3 Bft)
25.02.2020 18:40 7,0 C 7,0 C 93 % 1009,2 hPa 0,2 l/m 5,5 km/h (1 Bft) SW 223 0 min 0 W/m 5,9 C 6,2 C 14,5 km/h (3 Bft)
25.02.2020 18:35 7,1 C 7,1 C 93 % 1009,3 hPa 0,0 l/m 5,4 km/h (1 Bft) W-SW 238 0 min 0 W/m 6,0 C 6,3 C 11,3 km/h (2 Bft)
25.02.2020 18:30 7,1 C 7,1 C 93 % 1009,3 hPa 0,2 l/m 3,7 km/h (1 Bft) S 179 0 min 0 W/m 6,0 C 7,1 C 14,5 km/h (3 Bft)
25.02.2020 18:25 7,1 C 7,1 C 93 % 1009,4 hPa 0,0 l/m 2,3 km/h (1 Bft) S-SW 202 0 min 0 W/m 6,0 C 7,1 C 17,7 km/h (3 Bft)
25.02.2020 18:20 7,1 C 7,0 C 93 % 1009,4 hPa 0,2 l/m 1,2 km/h (1 Bft) S-SW 205 0 min 0 W/m 6,0 C 7,1 C 6,4 km/h (2 Bft)
25.02.2020 18:15 7,1 C 7,0 C 93 % 1009,3 hPa 0,0 l/m 1,6 km/h (1 Bft) SW 217 0 min 0 W/m 6,0 C 7,1 C 8,0 km/h (2 Bft)
25.02.2020 18:10 7,0 C 7,0 C 92 % 1009,2 hPa 0,0 l/m 1,2 km/h (1 Bft) SW 226 0 min 0 W/m 5,8 C 7,0 C 4,8 km/h (1 Bft)
25.02.2020 18:05 7,1 C 7,1 C 92 % 1009,1 hPa 0,0 l/m 0,3 km/h (0 Bft) S 188 0 min 0 W/m 5,9 C 7,1 C 1,6 km/h (1 Bft)
25.02.2020 18:00 7,1 C 7,1 C 92 % 1009,2 hPa 0,0 l/m 1,6 km/h (1 Bft) SW 222 0 min 0 W/m 5,9 C 7,1 C 8,0 km/h (2 Bft)
25.02.2020 17:55 7,1 C 7,1 C 92 % 1009,3 hPa 0,0 l/m 3,1 km/h (1 Bft) S 191 0 min 0 W/m 5,9 C 7,1 C 9,7 km/h (2 Bft)
25.02.2020 17:50 7,1 C 7,1 C 92 % 1009,4 hPa 0,0 l/m 2,7 km/h (1 Bft) SW 227 0 min 0 W/m 5,9 C 7,1 C 8,0 km/h (2 Bft)
25.02.2020 17:45 7,1 C 7,1 C 92 % 1009,4 hPa 0,0 l/m 0,9 km/h (0 Bft) S-SW 192 0 min 0 W/m 5,9 C 7,1 C 4,8 km/h (1 Bft)
25.02.2020 17:40 7,1 C 7,1 C 92 % 1009,4 hPa 0,0 l/m 1,1 km/h (1 Bft) S-SW 209 0 min 0 W/m 5,9 C 7,1 C 3,2 km/h (1 Bft)
25.02.2020 17:35 7,1 C 7,1 C 92 % 1009,4 hPa 0,0 l/m 1,4 km/h (1 Bft) S-SW 200 0 min 0 W/m 5,9 C 7,1 C 6,4 km/h (2 Bft)
25.02.2020 17:30 7,1 C 7,1 C 92 % 1009,5 hPa 0,0 l/m 3,2 km/h (1 Bft) SW 218 0 min 0 W/m 5,9 C 7,1 C 11,3 km/h (2 Bft)
25.02.2020 17:25 7,2 C 7,2 C 92 % 1009,8 hPa 0,0 l/m 4,0 km/h (1 Bft) S-SW 212 0 min 0 W/m 6,0 C 7,2 C 16,1 km/h (3 Bft)
25.02.2020 17:20 7,2 C 7,2 C 92 % 1009,9 hPa 0,2 l/m 2,9 km/h (1 Bft) S-SO 165 0 min 0 W/m 6,0 C 7,2 C 8,0 km/h (2 Bft)
25.02.2020 17:15 7,2 C 7,2 C 92 % 1009,9 hPa 0,0 l/m 3,8 km/h (1 Bft) SW 217 0 min 0 W/m 6,0 C 7,2 C 9,7 km/h (2 Bft)
25.02.2020 17:10 7,2 C 7,2 C 91 % 1010,1 hPa 0,0 l/m 0,9 km/h (0 Bft) S 186 0 min 0 W/m 5,8 C 7,2 C 4,8 km/h (1 Bft)
25.02.2020 17:05 7,2 C 7,2 C 91 % 1010,0 hPa 0,0 l/m 1,7 km/h (1 Bft) S-SW 196 0 min 0 W/m 5,8 C 7,2 C 6,4 km/h (2 Bft)
25.02.2020 17:00 7,2 C 7,2 C 91 % 1010,3 hPa 0,0 l/m 3,5 km/h (1 Bft) S-SW 209 0 min 0 W/m 5,8 C 7,2 C 8,0 km/h (2 Bft)
25.02.2020 16:55 7,3 C 7,3 C 91 % 1010,2 hPa 0,0 l/m 4,4 km/h (1 Bft) SW 219 0 min 0 W/m 5,9 C 7,3 C 12,9 km/h (3 Bft)
25.02.2020 16:50 7,4 C 7,4 C 91 % 1010,3 hPa 0,0 l/m 1,4 km/h (1 Bft) SW 229 0 min 0 W/m 6,0 C 7,4 C 6,4 km/h (2 Bft)
25.02.2020 16:45 7,4 C 7,4 C 91 % 1010,3 hPa 0,2 l/m 2,6 km/h (1 Bft) W-SW 242 0 min 0 W/m 6,0 C 7,4 C 12,9 km/h (3 Bft)
25.02.2020 16:40 7,5 C 7,5 C 91 % 1010,4 hPa 0,0 l/m 3,1 km/h (1 Bft) SW 221 0 min 0 W/m 6,1 C 7,5 C 16,1 km/h (3 Bft)
25.02.2020 16:35 7,6 C 7,6 C 91 % 1010,3 hPa 0,0 l/m 4,1 km/h (1 Bft) S-SW 209 0 min 0 W/m 6,2 C 7,6 C 17,7 km/h (3 Bft)
25.02.2020 16:30 7,7 C 7,7 C 91 % 1010,2 hPa 0,0 l/m 3,1 km/h (1 Bft) W 279 0 min 0 W/m 6,3 C 7,7 C 16,1 km/h (3 Bft)
25.02.2020 16:25 7,7 C 7,7 C 90 % 1010,2 hPa 0,0 l/m 2,7 km/h (1 Bft) W-SW 255 0 min 0 W/m 6,2 C 7,7 C 17,7 km/h (3 Bft)
25.02.2020 16:20 7,9 C 7,9 C 90 % 1010,3 hPa 0,0 l/m 4,6 km/h (1 Bft) W-SW 246 0 min 0 W/m 6,4 C 7,5 C 14,5 km/h (3 Bft)
25.02.2020 16:15 8,2 C 8,2 C 90 % 1010,2 hPa 0,0 l/m 4,6 km/h (1 Bft) W 279 0 min 0 W/m 6,7 C 7,9 C 14,5 km/h (3 Bft)
25.02.2020 16:10 8,4 C 8,4 C 90 % 1010,1 hPa 0,0 l/m 5,5 km/h (1 Bft) NW 316 0 min 0 W/m 6,9 C 7,8 C 16,1 km/h (3 Bft)
25.02.2020 16:05 8,5 C 8,5 C 89 % 1010,2 hPa 0,0 l/m 0,9 km/h (0 Bft) W-NW 296 0 min 0 W/m 6,8 C 8,5 C 12,9 km/h (3 Bft)
25.02.2020 16:00 8,7 C 8,7 C 88 % 1010,3 hPa 0,2 l/m 1,4 km/h (1 Bft) W-SW 257 0 min 0 W/m 6,8 C 8,7 C 8,0 km/h (2 Bft)
25.02.2020 15:55 9,0 C 9,0 C 87 % 1010,4 hPa 0,4 l/m 3,9 km/h (1 Bft) W 262 0 min 0 W/m 7,0 C 9,0 C 14,5 km/h (3 Bft)
25.02.2020 15:50 9,4 C 9,4 C 86 % 1010,3 hPa 1,0 l/m 6,7 km/h (2 Bft) W-SW 242 0 min 0 W/m 7,2 C 8,6 C 27,4 km/h (4 Bft)
25.02.2020 15:45 9,7 C 9,7 C 85 % 1010,1 hPa 0,4 l/m 2,6 km/h (1 Bft) W 267 0 min 0 W/m 7,3 C 9,7 C 11,3 km/h (2 Bft)
25.02.2020 15:40 9,7 C 9,7 C 83 % 1009,8 hPa 0,2 l/m 6,7 km/h (2 Bft) S-SW 208 0 min 0 W/m 7,0 C 8,9 C 16,1 km/h (3 Bft)
25.02.2020 15:35 9,7 C 9,7 C 82 % 1009,7 hPa 0,0 l/m 5,7 km/h (1 Bft) S-SW 195 0 min 0 W/m 6,8 C 9,2 C 12,9 km/h (3 Bft)
25.02.2020 15:30 9,7 C 9,7 C 81 % 1009,6 hPa 0,0 l/m 4,2 km/h (1 Bft) S-SW 207 0 min 0 W/m 6,6 C 9,7 C 12,9 km/h (3 Bft)
25.02.2020 15:25 9,8 C 9,8 C 82 % 1009,8 hPa 0,0 l/m 10,2 km/h (2 Bft) S 185 0 min 0 W/m 6,9 C 8,4 C 25,7 km/h (4 Bft)
25.02.2020 15:20 9,8 C 9,8 C 82 % 1009,7 hPa 0,0 l/m 9,0 km/h (2 Bft) S-SW 192 0 min 0 W/m 6,9 C 8,6 C 16,1 km/h (3 Bft)
25.02.2020 15:15 9,8 C 9,7 C 82 % 1009,8 hPa 0,0 l/m 7,5 km/h (2 Bft) S-SW 196 0 min 0 W/m 6,9 C 8,9 C 14,5 km/h (3 Bft)
25.02.2020 15:10 9,8 C 9,7 C 83 % 1009,7 hPa 0,0 l/m 9,1 km/h (2 Bft) S-SW 196 0 min 0 W/m 7,1 C 8,6 C 22,5 km/h (4 Bft)
25.02.2020 15:05 9,7 C 9,6 C 83 % 1009,9 hPa 0,0 l/m 8,1 km/h (2 Bft) S-SW 196 0 min 0 W/m 7,0 C 8,6 C 14,5 km/h (3 Bft)
25.02.2020 15:00 9,7 C 9,6 C 83 % 1010,0 hPa 0,0 l/m 9,5 km/h (2 Bft) S-SW 194 0 min 0 W/m 7,0 C 8,4 C 19,3 km/h (3 Bft)
25.02.2020 14:55 9,6 C 9,6 C 84 % 1010,0 hPa 0,0 l/m 9,5 km/h (2 Bft) S 191 0 min 0 W/m 7,0 C 8,2 C 19,3 km/h (3 Bft)
25.02.2020 14:50 9,6 C 9,5 C 84 % 1010,1 hPa 0,0 l/m 8,0 km/h (2 Bft) S-SW 196 0 min 0 W/m 7,0 C 8,5 C 19,3 km/h (3 Bft)
25.02.2020 14:45 9,5 C 9,5 C 84 % 1010,2 hPa 0,0 l/m 4,6 km/h (1 Bft) S-SW 199 0 min 0 W/m 6,9 C 9,3 C 17,7 km/h (3 Bft)
25.02.2020 14:40 9,5 C 9,5 C 84 % 1010,2 hPa 0,0 l/m 6,7 km/h (2 Bft) SW 215 0 min 0 W/m 6,9 C 8,7 C 14,5 km/h (3 Bft)
25.02.2020 14:35 9,5 C 9,4 C 85 % 1010,2 hPa 0,0 l/m 5,7 km/h (1 Bft) S 184 0 min 0 W/m 7,1 C 9,0 C 22,5 km/h (4 Bft)
25.02.2020 14:30 9,4 C 9,4 C 85 % 1010,1 hPa 0,0 l/m 6,7 km/h (2 Bft) S 190 0 min 0 W/m 7,0 C 8,6 C 16,1 km/h (3 Bft)
25.02.2020 14:25 9,4 C 9,3 C 85 % 1010,3 hPa 0,0 l/m 6,5 km/h (2 Bft) S-SW 209 0 min 0 W/m 7,0 C 8,7 C 16,1 km/h (3 Bft)
25.02.2020 14:20 9,3 C 9,3 C 85 % 1010,3 hPa 0,0 l/m 9,2 km/h (2 Bft) S-SW 197 0 min 0 W/m 6,9 C 7,9 C 20,9 km/h (4 Bft)
25.02.2020 14:15 9,3 C 9,3 C 86 % 1010,4 hPa 0,0 l/m 6,5 km/h (2 Bft) S-SW 194 0 min 0 W/m 7,1 C 8,5 C 16,1 km/h (3 Bft)
25.02.2020 14:10 9,3 C 9,2 C 86 % 1010,4 hPa 0,0 l/m 4,8 km/h (1 Bft) SW 217 0 min 0 W/m 7,1 C 9,0 C 14,5 km/h (3 Bft)
25.02.2020 14:05 9,2 C 9,2 C 87 % 1010,6 hPa 0,0 l/m 6,9 km/h (2 Bft) S-SW 208 0 min 0 W/m 7,2 C 8,3 C 16,1 km/h (3 Bft)
25.02.2020 14:00 9,2 C 9,1 C 88 % 1010,6 hPa 0,0 l/m 4,9 km/h (1 Bft) SW 231 0 min 0 W/m 7,3 C 8,9 C 11,3 km/h (2 Bft)
25.02.2020 13:55 9,1 C 9,1 C 88 % 1010,7 hPa 0,0 l/m 5,6 km/h (1 Bft) S-SW 201 0 min 0 W/m 7,2 C 8,6 C 14,5 km/h (3 Bft)
25.02.2020 13:50 9,1 C 9,1 C 89 % 1010,8 hPa 0,0 l/m 6,2 km/h (2 Bft) S-SW 196 0 min 0 W/m 7,4 C 8,4 C 16,1 km/h (3 Bft)
25.02.2020 13:45 9,1 C 9,1 C 89 % 1010,9 hPa 0,0 l/m 4,3 km/h (1 Bft) S-SW 200 0 min 0 W/m 7,4 C 9,1 C 12,9 km/h (3 Bft)
25.02.2020 13:40 9,1 C 9,1 C 90 % 1011,0 hPa 0,2 l/m 3,6 km/h (1 Bft) S-SW 206 0 min 0 W/m 7,5 C 9,1 C 11,3 km/h (2 Bft)
25.02.2020 13:35 9,1 C 9,0 C 90 % 1011,0 hPa 0,0 l/m 3,1 km/h (1 Bft) S-SO 161 0 min 0 W/m 7,5 C 9,1 C 9,7 km/h (2 Bft)
25.02.2020 13:30 9,0 C 8,9 C 90 % 1011,1 hPa 0,0 l/m 4,5 km/h (1 Bft) S 189 0 min 0 W/m 7,4 C 9,0 C 11,3 km/h (2 Bft)
25.02.2020 13:25 8,9 C 8,8 C 89 % 1011,2 hPa 0,0 l/m 4,7 km/h (1 Bft) S 178 0 min 0 W/m 7,2 C 8,6 C 12,9 km/h (3 Bft)
25.02.2020 13:20 8,8 C 8,8 C 89 % 1011,3 hPa 0,0 l/m 7,7 km/h (2 Bft) S-SW 212 0 min 0 W/m 7,1 C 7,7 C 17,7 km/h (3 Bft)
25.02.2020 13:15 8,8 C 8,8 C 90 % 1011,4 hPa 0,0 l/m 9,3 km/h (2 Bft) S 186 0 min 0 W/m 7,3 C 7,3 C 19,3 km/h (3 Bft)
25.02.2020 13:10 8,8 C 8,8 C 90 % 1011,5 hPa 0,0 l/m 8,3 km/h (2 Bft) S-SW 192 0 min 0 W/m 7,3 C 7,5 C 22,5 km/h (4 Bft)
25.02.2020 13:05 8,8 C 8,8 C 91 % 1011,6 hPa 0,0 l/m 7,0 km/h (2 Bft) S-SW 199 0 min 0 W/m 7,4 C 7,8 C 16,1 km/h (3 Bft)
25.02.2020 13:00 8,8 C 8,8 C 91 % 1011,7 hPa 0,0 l/m 8,2 km/h (2 Bft) S-SW 194 0 min 0 W/m 7,4 C 7,6 C 16,1 km/h (3 Bft)
25.02.2020 12:55 8,8 C 8,8 C 91 % 1011,8 hPa 0,0 l/m 6,7 km/h (2 Bft) W-SW 240 0 min 0 W/m 7,4 C 7,9 C 16,1 km/h (3 Bft)
25.02.2020 12:50 8,9 C 8,9 C 91 % 1011,8 hPa 0,0 l/m 5,6 km/h (1 Bft) S-SW 200 0 min 0 W/m 7,5 C 8,3 C 14,5 km/h (3 Bft)
25.02.2020 12:45 8,9 C 8,9 C 91 % 1011,8 hPa 0,0 l/m 3,2 km/h (1 Bft) S-SW 197 0 min 0 W/m 7,5 C 8,9 C 9,7 km/h (2 Bft)
25.02.2020 12:40 8,9 C 8,9 C 91 % 1011,8 hPa 0,0 l/m 5,0 km/h (1 Bft) S 172 0 min 0 W/m 7,5 C 8,5 C 14,5 km/h (3 Bft)
25.02.2020 12:35 8,9 C 8,9 C 91 % 1011,9 hPa 0,0 l/m 4,9 km/h (1 Bft) S-SO 167 0 min 0 W/m 7,5 C 8,5 C 16,1 km/h (3 Bft)
25.02.2020 12:30 8,9 C 8,9 C 91 % 1012,0 hPa 0,2 l/m 4,8 km/h (1 Bft) S-SO 163 0 min 0 W/m 7,5 C 8,6 C 16,1 km/h (3 Bft)
25.02.2020 12:25 8,9 C 8,9 C 91 % 1011,9 hPa 0,0 l/m 5,3 km/h (1 Bft) S 180 0 min 0 W/m 7,5 C 8,4 C 14,5 km/h (3 Bft)
25.02.2020 12:20 8,9 C 8,9 C 91 % 1012,1 hPa 0,0 l/m 2,9 km/h (1 Bft) S-SW 213 0 min 0 W/m 7,5 C 8,9 C 8,0 km/h (2 Bft)
25.02.2020 12:15 8,9 C 8,9 C 91 % 1012,1 hPa 0,0 l/m 5,1 km/h (1 Bft) S 183 0 min 0 W/m 7,5 C 8,5 C 11,3 km/h (2 Bft)
25.02.2020 12:10 8,9 C 8,8 C 91 % 1012,2 hPa 0,0 l/m 3,9 km/h (1 Bft) S 174 0 min 0 W/m 7,5 C 8,9 C 12,9 km/h (3 Bft)
25.02.2020 12:05 8,9 C 8,8 C 91 % 1012,3 hPa 0,0 l/m 2,8 km/h (1 Bft) S-SW 202 0 min 0 W/m 7,5 C 8,9 C 12,9 km/h (3 Bft)
25.02.2020 12:00 8,8 C 8,7 C 91 % 1012,4 hPa 0,0 l/m 2,3 km/h (1 Bft) S-SO 167 0 min 0 W/m 7,4 C 8,8 C 8,0 km/h (2 Bft)
25.02.2020 11:55 8,7 C 8,7 C 91 % 1012,4 hPa 0,0 l/m 2,6 km/h (1 Bft) S-SW 192 0 min 0 W/m 7,3 C 8,7 C 8,0 km/h (2 Bft)
25.02.2020 11:50 8,7 C 8,7 C 91 % 1012,4 hPa 0,0 l/m 3,5 km/h (1 Bft) S-SW 205 0 min 0 W/m 7,3 C 8,7 C 9,7 km/h (2 Bft)
25.02.2020 11:45 8,7 C 8,6 C 91 % 1012,5 hPa 0,0 l/m 3,4 km/h (1 Bft) S-SW 198 0 min 0 W/m 7,3 C 8,7 C 11,3 km/h (2 Bft)
25.02.2020 11:40 8,6 C 8,6 C 91 % 1012,6 hPa 0,0 l/m 3,2 km/h (1 Bft) S-SW 203 0 min 0 W/m 7,2 C 8,6 C 11,3 km/h (2 Bft)
25.02.2020 11:35 8,6 C 8,6 C 91 % 1012,6 hPa 0,0 l/m 3,2 km/h (1 Bft) S 188 0 min 0 W/m 7,2 C 8,6 C 12,9 km/h (3 Bft)
25.02.2020 11:30 8,6 C 8,5 C 91 % 1012,7 hPa 0,0 l/m 2,5 km/h (1 Bft) S-SW 204 0 min 0 W/m 7,2 C 8,6 C 8,0 km/h (2 Bft)
25.02.2020 11:25 8,5 C 8,5 C 91 % 1012,6 hPa 0,0 l/m 3,7 km/h (1 Bft) S-SO 167 0 min 0 W/m 7,1 C 8,5 C 12,9 km/h (3 Bft)
25.02.2020 11:20 8,5 C 8,4 C 91 % 1012,7 hPa 0,0 l/m 5,0 km/h (1 Bft) SW 215 0 min 0 W/m 7,1 C 8,1 C 12,9 km/h (3 Bft)
25.02.2020 11:15 8,4 C 8,4 C 91 % 1012,7 hPa 0,0 l/m 4,0 km/h (1 Bft) S 184 0 min 0 W/m 7,0 C 8,4 C 11,3 km/h (2 Bft)
25.02.2020 11:10 8,4 C 8,3 C 91 % 1012,8 hPa 0,0 l/m 4,8 km/h (1 Bft) S-SW 210 0 min 0 W/m 7,0 C 8,0 C 11,3 km/h (2 Bft)
25.02.2020 11:05 8,4 C 8,3 C 91 % 1012,9 hPa 0,0 l/m 5,8 km/h (2 Bft) S-SW 199 0 min 0 W/m 7,0 C 7,7 C 11,3 km/h (2 Bft)
25.02.2020 11:00 8,3 C 8,3 C 91 % 1012,9 hPa 0,0 l/m 5,5 km/h (1 Bft) S-SW 194 0 min 0 W/m 6,9 C 7,7 C 12,9 km/h (3 Bft)
25.02.2020 10:55 8,3 C 8,2 C 92 % 1012,9 hPa 0,0 l/m 5,1 km/h (1 Bft) S-SW 209 0 min 0 W/m 7,1 C 7,8 C 12,9 km/h (3 Bft)
25.02.2020 10:50 8,2 C 8,2 C 92 % 1013,0 hPa 0,0 l/m 7,7 km/h (2 Bft) S 183 0 min 0 W/m 7,0 C 7,0 C 16,1 km/h (3 Bft)
25.02.2020 10:45 8,2 C 8,2 C 92 % 1013,0 hPa 0,0 l/m 7,3 km/h (2 Bft) SW 220 0 min 0 W/m 7,0 C 7,1 C 19,3 km/h (3 Bft)
25.02.2020 10:40 8,2 C 8,1 C 92 % 1013,0 hPa 0,2 l/m 7,5 km/h (2 Bft) S 188 0 min 0 W/m 7,0 C 7,0 C 17,7 km/h (3 Bft)
25.02.2020 10:35 8,1 C 8,1 C 92 % 1013,1 hPa 0,0 l/m 5,6 km/h (1 Bft) S 182 0 min 0 W/m 6,9 C 7,4 C 14,5 km/h (3 Bft)
25.02.2020 10:30 8,1 C 8,1 C 92 % 1013,1 hPa 0,0 l/m 5,0 km/h (1 Bft) S 188 0 min 0 W/m 6,9 C 7,6 C 11,3 km/h (2 Bft)
25.02.2020 10:25 8,1 C 7,9 C 92 % 1013,2 hPa 0,0 l/m 5,3 km/h (1 Bft) S 180 0 min 0 W/m 6,9 C 7,5 C 12,9 km/h (3 Bft)
25.02.2020 10:20 7,9 C 7,9 C 92 % 1013,3 hPa 0,0 l/m 8,4 km/h (2 Bft) S-SW 196 0 min 0 W/m 6,7 C 6,5 C 17,7 km/h (3 Bft)
25.02.2020 10:15 7,9 C 7,9 C 92 % 1013,2 hPa 0,0 l/m 4,9 km/h (1 Bft) S 181 0 min 0 W/m 6,7 C 7,4 C 12,9 km/h (3 Bft)
25.02.2020 10:10 7,9 C 7,8 C 92 % 1013,4 hPa 0,0 l/m 6,2 km/h (2 Bft) S 182 0 min 0 W/m 6,7 C 7,0 C 16,1 km/h (3 Bft)
25.02.2020 10:05 7,8 C 7,8 C 92 % 1013,5 hPa 0,0 l/m 6,6 km/h (2 Bft) S 185 0 min 0 W/m 6,6 C 6,8 C 12,9 km/h (3 Bft)
25.02.2020 10:00 7,8 C 7,8 C 92 % 1013,6 hPa 0,0 l/m 6,3 km/h (2 Bft) S 189 0 min 0 W/m 6,6 C 6,9 C 12,9 km/h (3 Bft)
25.02.2020 09:55 7,8 C 7,8 C 92 % 1013,6 hPa 0,0 l/m 6,2 km/h (2 Bft) S-SW 203 0 min 0 W/m 6,6 C 6,9 C 14,5 km/h (3 Bft)
25.02.2020 09:50 7,8 C 7,7 C 92 % 1013,6 hPa 0,2 l/m 5,4 km/h (1 Bft) S-SW 200 0 min 0 W/m 6,6 C 7,1 C 12,9 km/h (3 Bft)
25.02.2020 09:45 7,8 C 7,7 C 92 % 1013,6 hPa 0,0 l/m 1,5 km/h (1 Bft) S-SW 192 0 min 0 W/m 6,6 C 7,8 C 6,4 km/h (2 Bft)
25.02.2020 09:40 7,7 C 7,7 C 92 % 1013,6 hPa 0,0 l/m 2,4 km/h (1 Bft) S 190 0 min 0 W/m 6,5 C 7,7 C 9,7 km/h (2 Bft)
25.02.2020 09:35 7,7 C 7,7 C 92 % 1013,7 hPa 0,0 l/m 4,2 km/h (1 Bft) S-SW 192 0 min 0 W/m 6,5 C 7,7 C 11,3 km/h (2 Bft)
25.02.2020 09:30 7,7 C 7,7 C 92 % 1013,7 hPa 0,0 l/m 3,7 km/h (1 Bft) S-SW 196 0 min 0 W/m 6,5 C 7,7 C 11,3 km/h (2 Bft)
25.02.2020 09:25 7,7 C 7,7 C 92 % 1013,9 hPa 0,0 l/m 5,2 km/h (1 Bft) S 174 0 min 0 W/m 6,5 C 7,1 C 17,7 km/h (3 Bft)
25.02.2020 09:20 7,7 C 7,7 C 92 % 1014,1 hPa 0,0 l/m 6,3 km/h (2 Bft) S-SW 202 0 min 0 W/m 6,5 C 6,7 C 16,1 km/h (3 Bft)
25.02.2020 09:15 7,7 C 7,7 C 92 % 1014,0 hPa 0,2 l/m 8,4 km/h (2 Bft) S-SW 194 0 min 0 W/m 6,5 C 6,2 C 16,1 km/h (3 Bft)
25.02.2020 09:10 7,7 C 7,7 C 92 % 1014,1 hPa 0,0 l/m 8,0 km/h (2 Bft) S-SW 207 0 min 0 W/m 6,5 C 6,3 C 17,7 km/h (3 Bft)
25.02.2020 09:05 7,7 C 7,7 C 92 % 1014,1 hPa 0,0 l/m 7,0 km/h (2 Bft) S-SW 194 0 min 0 W/m 6,5 C 6,6 C 17,7 km/h (3 Bft)
25.02.2020 09:00 7,7 C 7,7 C 92 % 1014,1 hPa 0,0 l/m 8,0 km/h (2 Bft) S 189 0 min 0 W/m 6,5 C 6,3 C 16,1 km/h (3 Bft)
25.02.2020 08:55 7,7 C 7,7 C 93 % 1014,0 hPa 0,0 l/m 6,3 km/h (2 Bft) S-SW 210 0 min 0 W/m 6,6 C 6,7 C 12,9 km/h (3 Bft)
25.02.2020 08:50 7,7 C 7,7 C 93 % 1014,0 hPa 0,0 l/m 4,7 km/h (1 Bft) S-SW 194 0 min 0 W/m 6,6 C 7,3 C 12,9 km/h (3 Bft)
25.02.2020 08:45 7,7 C 7,6 C 92 % 1014,0 hPa 0,0 l/m 5,1 km/h (1 Bft) S-SW 209 0 min 0 W/m 6,5 C 7,1 C 12,9 km/h (3 Bft)
25.02.2020 08:40 7,7 C 7,6 C 92 % 1014,1 hPa 0,0 l/m 8,7 km/h (2 Bft) S-SO 168 0 min 0 W/m 6,5 C 6,1 C 17,7 km/h (3 Bft)
25.02.2020 08:35 7,6 C 7,6 C 93 % 1014,1 hPa 0,2 l/m 8,7 km/h (2 Bft) S 182 0 min 0 W/m 6,5 C 6,0 C 19,3 km/h (3 Bft)
25.02.2020 08:30 7,6 C 7,6 C 93 % 1014,0 hPa 0,0 l/m 6,4 km/h (2 Bft) S 187 0 min 0 W/m 6,5 C 6,6 C 16,1 km/h (3 Bft)
25.02.2020 08:25 7,6 C 7,6 C 93 % 1014,0 hPa 0,0 l/m 6,1 km/h (2 Bft) S 180 0 min 0 W/m 6,5 C 6,7 C 16,1 km/h (3 Bft)
25.02.2020 08:20 7,6 C 7,6 C 93 % 1014,1 hPa 0,0 l/m 5,5 km/h (1 Bft) S 190 0 min 0 W/m 6,5 C 6,9 C 12,9 km/h (3 Bft)
25.02.2020 08:15 7,6 C 7,6 C 92 % 1014,1 hPa 0,0 l/m 2,8 km/h (1 Bft) S-SW 201 0 min 0 W/m 6,4 C 7,6 C 8,0 km/h (2 Bft)
25.02.2020 08:10 7,6 C 7,6 C 92 % 1014,1 hPa 0,0 l/m 3,5 km/h (1 Bft) S-SW 196 0 min 0 W/m 6,4 C 7,6 C 8,0 km/h (2 Bft)
25.02.2020 08:05 7,6 C 7,6 C 92 % 1014,3 hPa 0,0 l/m 5,4 km/h (1 Bft) S-SW 210 0 min 0 W/m 6,4 C 6,9 C 9,7 km/h (2 Bft)
25.02.2020 08:00 7,6 C 7,6 C 92 % 1014,3 hPa 0,0 l/m 5,3 km/h (1 Bft) S 185 0 min 0 W/m 6,4 C 6,9 C 11,3 km/h (2 Bft)
25.02.2020 07:55 7,6 C 7,6 C 92 % 1014,4 hPa 0,0 l/m 6,1 km/h (2 Bft) SW 224 0 min 0 W/m 6,4 C 6,7 C 12,9 km/h (3 Bft)
25.02.2020 07:50 7,6 C 7,6 C 92 % 1014,3 hPa 0,2 l/m 2,9 km/h (1 Bft) S-SW 205 0 min 0 W/m 6,4 C 7,6 C 6,4 km/h (2 Bft)
25.02.2020 07:45 7,6 C 7,6 C 92 % 1014,3 hPa 0,0 l/m 4,2 km/h (1 Bft) S 186 0 min 0 W/m 6,4 C 7,6 C 11,3 km/h (2 Bft)
25.02.2020 07:40 7,6 C 7,6 C 92 % 1014,3 hPa 0,0 l/m 4,1 km/h (1 Bft) S-SW 201 0 min 0 W/m 6,4 C 7,6 C 12,9 km/h (3 Bft)
25.02.2020 07:35 7,6 C 7,6 C 92 % 1014,3 hPa 0,0 l/m 4,3 km/h (1 Bft) S 175 0 min 0 W/m 6,4 C 7,6 C 9,7 km/h (2 Bft)
25.02.2020 07:30 7,6 C 7,6 C 92 % 1014,4 hPa 0,0 l/m 5,9 km/h (2 Bft) SW 227 0 min 0 W/m 6,4 C 6,7 C 9,7 km/h (2 Bft)
25.02.2020 07:25 7,7 C 7,7 C 92 % 1014,3 hPa 0,0 l/m 4,6 km/h (1 Bft) S-SW 205 0 min 0 W/m 6,5 C 7,3 C 12,9 km/h (3 Bft)
25.02.2020 07:20 7,7 C 7,7 C 92 % 1014,3 hPa 0,0 l/m 4,4 km/h (1 Bft) SW 222 0 min 0 W/m 6,5 C 7,7 C 9,7 km/h (2 Bft)
25.02.2020 07:15 7,7 C 7,7 C 91 % 1014,4 hPa 0,0 l/m 5,4 km/h (1 Bft) S-SW 206 0 min 0 W/m 6,3 C 7,0 C 19,3 km/h (3 Bft)
25.02.2020 07:10 7,8 C 7,8 C 91 % 1014,5 hPa 0,0 l/m 6,7 km/h (2 Bft) SW 236 0 min 0 W/m 6,4 C 6,7 C 16,1 km/h (3 Bft)
25.02.2020 07:05 7,9 C 7,9 C 91 % 1014,5 hPa 0,0 l/m 7,0 km/h (2 Bft) W-SW 250 0 min 0 W/m 6,5 C 6,8 C 14,5 km/h (3 Bft)
25.02.2020 07:00 7,9 C 7,9 C 91 % 1014,5 hPa 0,0 l/m 8,6 km/h (2 Bft) SW 219 0 min 0 W/m 6,5 C 6,4 C 17,7 km/h (3 Bft)
25.02.2020 06:55 8,1 C 8,1 C 91 % 1014,5 hPa 0,0 l/m 7,5 km/h (2 Bft) SW 227 0 min 0 W/m 6,7 C 6,9 C 22,5 km/h (4 Bft)
25.02.2020 06:50 8,1 C 8,1 C 91 % 1014,5 hPa 0,2 l/m 7,3 km/h (2 Bft) S-SO 164 0 min 0 W/m 6,7 C 6,9 C 16,1 km/h (3 Bft)
25.02.2020 06:45 8,2 C 8,2 C 90 % 1014,5 hPa 0,0 l/m 7,8 km/h (2 Bft) S-SW 211 0 min 0 W/m 6,7 C 6,9 C 17,7 km/h (3 Bft)
25.02.2020 06:40 8,2 C 8,2 C 90 % 1014,7 hPa 0,0 l/m 5,1 km/h (1 Bft) SW 221 0 min 0 W/m 6,7 C 7,7 C 16,1 km/h (3 Bft)
25.02.2020 06:35 8,2 C 8,2 C 90 % 1014,7 hPa 0,0 l/m 3,1 km/h (1 Bft) S 175 0 min 0 W/m 6,7 C 8,2 C 8,0 km/h (2 Bft)
25.02.2020 06:30 8,3 C 8,3 C 90 % 1014,8 hPa 0,0 l/m 4,5 km/h (1 Bft) SW 218 0 min 0 W/m 6,8 C 8,3 C 12,9 km/h (3 Bft)
25.02.2020 06:25 8,3 C 8,3 C 89 % 1014,9 hPa 0,0 l/m 3,1 km/h (1 Bft) SW 225 0 min 0 W/m 6,6 C 8,3 C 12,9 km/h (3 Bft)
25.02.2020 06:20 8,4 C 8,4 C 89 % 1014,9 hPa 0,0 l/m 4,6 km/h (1 Bft) SW 222 0 min 0 W/m 6,7 C 8,1 C 14,5 km/h (3 Bft)
25.02.2020 06:15 8,5 C 8,5 C 89 % 1014,8 hPa 0,0 l/m 3,4 km/h (1 Bft) SW 219 0 min 0 W/m 6,8 C 8,5 C 16,1 km/h (3 Bft)
25.02.2020 06:10 8,6 C 8,6 C 88 % 1014,9 hPa 0,0 l/m 3,6 km/h (1 Bft) S-SW 192 0 min 0 W/m 6,7 C 8,6 C 12,9 km/h (3 Bft)
25.02.2020 06:05 8,7 C 8,7 C 88 % 1015,0 hPa 0,0 l/m 5,9 km/h (2 Bft) SW 235 0 min 0 W/m 6,8 C 8,0 C 12,9 km/h (3 Bft)
25.02.2020 06:00 8,8 C 8,8 C 87 % 1015,1 hPa 0,0 l/m 5,8 km/h (2 Bft) S-SW 201 0 min 0 W/m 6,8 C 8,1 C 12,9 km/h (3 Bft)
25.02.2020 05:55 8,9 C 8,9 C 86 % 1015,2 hPa 0,0 l/m 8,2 km/h (2 Bft) SW 217 0 min 0 W/m 6,7 C 7,7 C 17,7 km/h (3 Bft)
25.02.2020 05:50 9,1 C 9,1 C 85 % 1015,3 hPa 0,0 l/m 9,8 km/h (2 Bft) SW 221 0 min 0 W/m 6,7 C 7,6 C 20,9 km/h (4 Bft)
25.02.2020 05:45 9,2 C 9,2 C 84 % 1015,3 hPa 0,0 l/m 9,4 km/h (2 Bft) S-SW 196 0 min 0 W/m 6,6 C 7,8 C 19,3 km/h (3 Bft)
25.02.2020 05:40 9,2 C 9,2 C 82 % 1015,2 hPa 0,0 l/m 11,6 km/h (2 Bft) SW 216 0 min 0 W/m 6,3 C 7,4 C 29,0 km/h (5 Bft)
25.02.2020 05:35 9,3 C 9,3 C 82 % 1015,2 hPa 0,0 l/m 7,0 km/h (2 Bft) W-SW 253 0 min 0 W/m 6,4 C 8,4 C 17,7 km/h (3 Bft)
25.02.2020 05:30 9,3 C 9,3 C 82 % 1015,1 hPa 0,0 l/m 4,6 km/h (1 Bft) SW 223 0 min 0 W/m 6,4 C 9,1 C 16,1 km/h (3 Bft)
25.02.2020 05:25 9,3 C 9,3 C 81 % 1015,1 hPa 0,0 l/m 2,4 km/h (1 Bft) SW 219 0 min 0 W/m 6,2 C 9,3 C 11,3 km/h (2 Bft)
25.02.2020 05:20 9,3 C 9,3 C 81 % 1015,1 hPa 0,0 l/m 7,1 km/h (2 Bft) SW 223 0 min 0 W/m 6,2 C 8,4 C 22,5 km/h (4 Bft)
25.02.2020 05:15 9,3 C 9,3 C 81 % 1015,0 hPa 0,0 l/m 9,1 km/h (2 Bft) SW 215 0 min 0 W/m 6,2 C 8,0 C 20,9 km/h (4 Bft)
25.02.2020 05:10 9,3 C 9,3 C 81 % 1015,0 hPa 0,0 l/m 6,6 km/h (2 Bft) SW 231 0 min 0 W/m 6,2 C 8,5 C 17,7 km/h (3 Bft)
25.02.2020 05:05 9,3 C 9,3 C 81 % 1015,0 hPa 0,0 l/m 6,4 km/h (2 Bft) S 183 0 min 0 W/m 6,2 C 8,6 C 19,3 km/h (3 Bft)
25.02.2020 05:00 9,3 C 9,3 C 80 % 1015,0 hPa 0,0 l/m 8,1 km/h (2 Bft) S-SW 213 0 min 0 W/m 6,0 C 8,2 C 19,3 km/h (3 Bft)
25.02.2020 04:55 9,3 C 9,2 C 80 % 1015,1 hPa 0,0 l/m 7,6 km/h (2 Bft) SW 225 0 min 0 W/m 6,0 C 8,3 C 19,3 km/h (3 Bft)
25.02.2020 04:50 9,3 C 9,2 C 80 % 1015,0 hPa 0,0 l/m 8,0 km/h (2 Bft) S-SW 200 0 min 0 W/m 6,0 C 8,2 C 17,7 km/h (3 Bft)
25.02.2020 04:45 9,2 C 9,2 C 80 % 1015,0 hPa 0,0 l/m 6,8 km/h (2 Bft) SW 223 0 min 0 W/m 5,9 C 8,3 C 16,1 km/h (3 Bft)
25.02.2020 04:40 9,2 C 9,1 C 80 % 1015,1 hPa 0,0 l/m 8,7 km/h (2 Bft) S-SW 204 0 min 0 W/m 5,9 C 7,9 C 20,9 km/h (4 Bft)
25.02.2020 04:35 9,1 C 9,1 C 80 % 1015,1 hPa 0,0 l/m 5,8 km/h (2 Bft) SW 221 0 min 0 W/m 5,8 C 8,5 C 16,1 km/h (3 Bft)
25.02.2020 04:30 9,1 C 9,1 C 80 % 1015,1 hPa 0,0 l/m 7,1 km/h (2 Bft) S-SO 150 0 min 0 W/m 5,8 C 8,2 C 22,5 km/h (4 Bft)
25.02.2020 04:25 9,1 C 9,0 C 80 % 1015,2 hPa 0,0 l/m 7,3 km/h (2 Bft) SW 221 0 min 0 W/m 5,8 C 8,1 C 16,1 km/h (3 Bft)
25.02.2020 04:20 9,0 C 9,0 C 80 % 1015,2 hPa 0,0 l/m 10,0 km/h (2 Bft) S-SW 207 0 min 0 W/m 5,7 C 7,4 C 22,5 km/h (4 Bft)
25.02.2020 04:15 9,0 C 9,0 C 80 % 1015,2 hPa 0,0 l/m 10,5 km/h (2 Bft) W-SW 252 0 min 0 W/m 5,7 C 7,3 C 20,9 km/h (4 Bft)
25.02.2020 04:10 9,0 C 9,0 C 79 % 1015,1 hPa 0,0 l/m 9,5 km/h (2 Bft) SW 227 0 min 0 W/m 5,6 C 7,5 C 20,9 km/h (4 Bft)
25.02.2020 04:05 9,0 C 8,9 C 80 % 1015,3 hPa 0,0 l/m 10,1 km/h (2 Bft) NW 304 0 min 0 W/m 5,7 C 7,4 C 20,9 km/h (4 Bft)
25.02.2020 04:00 8,9 C 8,9 C 79 % 1015,4 hPa 0,0 l/m 9,0 km/h (2 Bft) S 185 0 min 0 W/m 5,5 C 7,5 C 24,1 km/h (4 Bft)
25.02.2020 03:55 9,0 C 9,0 C 79 % 1015,4 hPa 0,0 l/m 8,3 km/h (2 Bft) SW 221 0 min 0 W/m 5,6 C 7,8 C 19,3 km/h (3 Bft)
25.02.2020 03:50 9,0 C 9,0 C 79 % 1015,4 hPa 0,0 l/m 7,8 km/h (2 Bft) S-SW 208 0 min 0 W/m 5,6 C 7,9 C 20,9 km/h (4 Bft)
25.02.2020 03:45 9,1 C 9,0 C 80 % 1015,4 hPa 0,0 l/m 9,5 km/h (2 Bft) SW 231 0 min 0 W/m 5,8 C 7,6 C 22,5 km/h (4 Bft)
25.02.2020 03:40 9,1 C 9,0 C 80 % 1015,5 hPa 0,0 l/m 8,0 km/h (2 Bft) S-SW 207 0 min 0 W/m 5,8 C 7,9 C 19,3 km/h (3 Bft)
25.02.2020 03:35 9,0 C 9,0 C 80 % 1015,5 hPa 0,0 l/m 7,4 km/h (2 Bft) S 191 0 min 0 W/m 5,7 C 8,0 C 27,4 km/h (4 Bft)
25.02.2020 03:30 9,1 C 9,1 C 80 % 1015,7 hPa 0,0 l/m 8,4 km/h (2 Bft) W 270 0 min 0 W/m 5,8 C 7,9 C 20,9 km/h (4 Bft)
25.02.2020 03:25 9,1 C 9,1 C 80 % 1015,7 hPa 0,0 l/m 6,9 km/h (2 Bft) W-SW 239 0 min 0 W/m 5,8 C 8,2 C 16,1 km/h (3 Bft)
25.02.2020 03:20 9,1 C 9,1 C 80 % 1015,7 hPa 0,0 l/m 6,7 km/h (2 Bft) S-SW 194 0 min 0 W/m 5,8 C 8,3 C 14,5 km/h (3 Bft)
25.02.2020 03:15 9,2 C 9,2 C 80 % 1015,7 hPa 0,0 l/m 7,8 km/h (2 Bft) SW 214 0 min 0 W/m 5,9 C 8,1 C 20,9 km/h (4 Bft)
25.02.2020 03:10 9,2 C 9,2 C 80 % 1015,7 hPa 0,0 l/m 6,7 km/h (2 Bft) S-SW 213 0 min 0 W/m 5,9 C 8,4 C 19,3 km/h (3 Bft)
25.02.2020 03:05 9,3 C 9,3 C 80 % 1015,8 hPa 0,0 l/m 6,9 km/h (2 Bft) SW 233 0 min 0 W/m 6,0 C 8,4 C 17,7 km/h (3 Bft)
25.02.2020 03:00 9,3 C 9,3 C 80 % 1015,8 hPa 0,0 l/m 7,9 km/h (2 Bft) S-SW 213 0 min 0 W/m 6,0 C 8,2 C 20,9 km/h (4 Bft)
25.02.2020 02:55 9,3 C 9,3 C 80 % 1016,1 hPa 0,0 l/m 7,9 km/h (2 Bft) S 171 0 min 0 W/m 6,0 C 8,2 C 17,7 km/h (3 Bft)
25.02.2020 02:50 9,3 C 9,3 C 80 % 1016,2 hPa 0,0 l/m 7,7 km/h (2 Bft) S-SW 194 0 min 0 W/m 6,0 C 8,3 C 16,1 km/h (3 Bft)
25.02.2020 02:45 9,4 C 9,4 C 80 % 1016,3 hPa 0,0 l/m 8,5 km/h (2 Bft) W-SW 247 0 min 0 W/m 6,1 C 8,2 C 20,9 km/h (4 Bft)
25.02.2020 02:40 9,4 C 9,4 C 80 % 1016,4 hPa 0,0 l/m 8,4 km/h (2 Bft) S-SW 198 0 min 0 W/m 6,1 C 8,2 C 20,9 km/h (4 Bft)
25.02.2020 02:35 9,5 C 9,5 C 80 % 1016,4 hPa 0,0 l/m 4,6 km/h (1 Bft) S-SW 213 0 min 0 W/m 6,2 C 9,3 C 22,5 km/h (4 Bft)
25.02.2020 02:30 9,6 C 9,6 C 80 % 1016,5 hPa 0,0 l/m 9,4 km/h (2 Bft) W 263 0 min 0 W/m 6,3 C 8,3 C 17,7 km/h (3 Bft)
25.02.2020 02:25 9,6 C 9,6 C 80 % 1016,6 hPa 0,0 l/m 10,0 km/h (2 Bft) S-SW 199 0 min 0 W/m 6,3 C 8,2 C 24,1 km/h (4 Bft)
25.02.2020 02:20 9,7 C 9,6 C 80 % 1016,7 hPa 0,0 l/m 9,1 km/h (2 Bft) SW 232 0 min 0 W/m 6,4 C 8,4 C 30,6 km/h (5 Bft)
25.02.2020 02:15 9,7 C 9,7 C 80 % 1016,6 hPa 0,0 l/m 8,7 km/h (2 Bft) W-SW 247 0 min 0 W/m 6,4 C 8,5 C 22,5 km/h (4 Bft)
25.02.2020 02:10 9,7 C 9,7 C 80 % 1016,8 hPa 0,0 l/m 8,9 km/h (2 Bft) S 190 0 min 0 W/m 6,4 C 8,5 C 19,3 km/h (3 Bft)
25.02.2020 02:05 9,7 C 9,7 C 80 % 1016,7 hPa 0,0 l/m 9,0 km/h (2 Bft) S-SW 205 0 min 0 W/m 6,4 C 8,5 C 19,3 km/h (3 Bft)
25.02.2020 02:00 9,7 C 9,6 C 81 % 1016,8 hPa 0,0 l/m 7,4 km/h (2 Bft) W-SW 240 0 min 0 W/m 6,6 C 8,8 C 17,7 km/h (3 Bft)
25.02.2020 01:55 9,6 C 9,6 C 81 % 1016,8 hPa 0,0 l/m 8,5 km/h (2 Bft) S-SW 200 0 min 0 W/m 6,5 C 8,4 C 20,9 km/h (4 Bft)
25.02.2020 01:50 9,6 C 9,6 C 81 % 1016,9 hPa 0,0 l/m 5,0 km/h (1 Bft) SW 221 0 min 0 W/m 6,5 C 9,3 C 16,1 km/h (3 Bft)
25.02.2020 01:45 9,7 C 9,6 C 81 % 1017,0 hPa 0,0 l/m 7,3 km/h (2 Bft) SW 221 0 min 0 W/m 6,6 C 8,8 C 24,1 km/h (4 Bft)
25.02.2020 01:40 9,7 C 9,7 C 82 % 1017,0 hPa 0,0 l/m 6,3 km/h (2 Bft) W-SW 254 0 min 0 W/m 6,8 C 9,0 C 17,7 km/h (3 Bft)
25.02.2020 01:35 9,7 C 9,7 C 82 % 1017,2 hPa 0,0 l/m 4,5 km/h (1 Bft) SW 217 0 min 0 W/m 6,8 C 9,7 C 14,5 km/h (3 Bft)
25.02.2020 01:30 9,7 C 9,7 C 82 % 1017,3 hPa 0,0 l/m 4,3 km/h (1 Bft) SW 231 0 min 0 W/m 6,8 C 9,7 C 9,7 km/h (2 Bft)
25.02.2020 01:25 9,7 C 9,7 C 82 % 1017,4 hPa 0,0 l/m 6,0 km/h (2 Bft) S-SW 204 0 min 0 W/m 6,8 C 9,1 C 20,9 km/h (4 Bft)
25.02.2020 01:20 9,7 C 9,7 C 82 % 1017,5 hPa 0,0 l/m 4,7 km/h (1 Bft) S-SW 202 0 min 0 W/m 6,8 C 9,5 C 11,3 km/h (2 Bft)
25.02.2020 01:15 9,8 C 9,8 C 82 % 1017,5 hPa 0,0 l/m 3,7 km/h (1 Bft) S-SW 204 0 min 0 W/m 6,9 C 9,8 C 17,7 km/h (3 Bft)
25.02.2020 01:10 9,8 C 9,8 C 83 % 1017,6 hPa 0,0 l/m 6,0 km/h (2 Bft) W 264 0 min 0 W/m 7,1 C 9,2 C 19,3 km/h (3 Bft)
25.02.2020 01:05 9,8 C 9,8 C 83 % 1017,7 hPa 0,0 l/m 3,6 km/h (1 Bft) W-SW 240 0 min 0 W/m 7,1 C 9,8 C 19,3 km/h (3 Bft)
25.02.2020 01:00 9,8 C 9,8 C 83 % 1017,8 hPa 0,0 l/m 5,6 km/h (1 Bft) S-SW 196 0 min 0 W/m 7,1 C 9,4 C 16,1 km/h (3 Bft)
25.02.2020 00:55 9,9 C 9,9 C 83 % 1017,9 hPa 0,0 l/m 3,1 km/h (1 Bft) W-SW 237 0 min 0 W/m 7,2 C 9,9 C 11,3 km/h (2 Bft)
25.02.2020 00:50 9,9 C 9,9 C 83 % 1017,8 hPa 0,0 l/m 3,9 km/h (1 Bft) W-SW 258 0 min 0 W/m 7,2 C 9,9 C 11,3 km/h (2 Bft)
25.02.2020 00:45 10,0 C 10,0 C 83 % 1017,8 hPa 0,0 l/m 4,7 km/h (1 Bft) W 271 0 min 0 W/m 7,2 C 9,8 C 16,1 km/h (3 Bft)
25.02.2020 00:40 10,1 C 10,1 C 83 % 1017,9 hPa 0,0 l/m 3,9 km/h (1 Bft) W-NW 302 0 min 0 W/m 7,3 C 10,1 C 12,9 km/h (3 Bft)
25.02.2020 00:35 10,2 C 10,2 C 83 % 1017,9 hPa 0,0 l/m 3,2 km/h (1 Bft) S-SW 210 0 min 0 W/m 7,4 C 10,2 C 12,9 km/h (3 Bft)
25.02.2020 00:30 10,2 C 10,2 C 83 % 1017,9 hPa 0,0 l/m 4,9 km/h (1 Bft) S-SO 168 0 min 0 W/m 7,4 C 10,2 C 14,5 km/h (3 Bft)
25.02.2020 00:25 10,3 C 10,3 C 83 % 1018,0 hPa 0,0 l/m 7,3 km/h (2 Bft) W-NW 286 0 min 0 W/m 7,5 C 10,3 C 20,9 km/h (4 Bft)
25.02.2020 00:20 10,3 C 10,3 C 83 % 1018,0 hPa 0,0 l/m 4,6 km/h (1 Bft) NW 320 0 min 0 W/m 7,5 C 10,3 C 22,5 km/h (4 Bft)
25.02.2020 00:15 10,4 C 10,4 C 83 % 1018,0 hPa 0,0 l/m 2,8 km/h (1 Bft) S-SW 195 0 min 0 W/m 7,6 C 10,4 C 8,0 km/h (2 Bft)
25.02.2020 00:10 10,5 C 10,5 C 83 % 1018,0 hPa 0,0 l/m 2,0 km/h (1 Bft) W-SW 248 0 min 0 W/m 7,7 C 10,5 C 8,0 km/h (2 Bft)
25.02.2020 00:05 10,6 C 10,6 C 83 % 1018,0 hPa 0,0 l/m 4,8 km/h (1 Bft) SW 234 0 min 0 W/m 7,8 C 10,6 C 17,7 km/h (3 Bft)
25.02.2020 00:00 10,6 C 10,6 C 83 % 1018,0 hPa 0,0 l/m 4,9 km/h (1 Bft) SW 216 0 min 0 W/m 7,8 C 10,6 C 14,5 km/h (3 Bft)
_ Min-Zeit 21:50 21:50 03:50 23:05 - 20:30 - - - - 21:55 19:10 20:30
Minimum _ 4,4 C 4,4 C 79 % 1007,0 hPa - 0,0 km/h (0 Bft) - - - - 3,2 C 4,4 C 0,0 km/h (0 Bft)
_ Max-Zeit 00:00 00:00 08:20 00:00 15:50 19:10 - - 00:00 00:00 00:00 00:00 19:10
Maximum _ 10,7 C 10,6 C 93 % 1018,0 hPa 1,0 l/m 11,7 km/h
SW (2 Bft)
- - 0 min 0 W/m 7,8 C 10,6 C 33,8 km/h
SW (5 Bft)
Durchschnitt _ 8,0 C 8,0 C 88 % 1012,4 hPa #4,8 l/m 5,0 km/h (1 Bft) S-SW - #0 min. 0 W/m 6,1 C 7,5 C 13,8 km/h (3 Bft)